Year,Month,Day,Hour,Minute,Value (Times are PST for temperature in C)
2016,04,30,00,00,10.30
2016,04,30,00,01,10.20
2016,04,30,00,02,10.20
2016,04,30,00,03,10.20
2016,04,30,00,04,10.20
2016,04,30,00,05,10.20
2016,04,30,00,06,10.20
2016,04,30,00,07,10.20
2016,04,30,00,08,10.20
2016,04,30,00,09,10.10
2016,04,30,00,10,10.10
2016,04,30,00,11,10.10
2016,04,30,00,12,10.10
2016,04,30,00,13,10.10
2016,04,30,00,14,10.10
2016,04,30,00,15,10.10
2016,04,30,00,16,10.10
2016,04,30,00,17,10.10
2016,04,30,00,18,10.20
2016,04,30,00,19,10.20
2016,04,30,00,20,10.20
2016,04,30,00,21,10.20
2016,04,30,00,22,10.20
2016,04,30,00,23,10.20
2016,04,30,00,24,10.20
2016,04,30,00,25,10.10
2016,04,30,00,26,10.10
2016,04,30,00,27,10.10
2016,04,30,00,28,10.10
2016,04,30,00,29,10.10
2016,04,30,00,30,10.10
2016,04,30,00,31,10.10
2016,04,30,00,32,10.10
2016,04,30,00,33,10.10
2016,04,30,00,34,10.10
2016,04,30,00,35,10.10
2016,04,30,00,36,10.10
2016,04,30,00,37,10.10
2016,04,30,00,38,10.10
2016,04,30,00,39,10.10
2016,04,30,00,40,10.10
2016,04,30,00,41,10.10
2016,04,30,00,42,10.10
2016,04,30,00,43,10.10
2016,04,30,00,44,10.10
2016,04,30,00,45,10.10
2016,04,30,00,46,10.10
2016,04,30,00,47,10.00
2016,04,30,00,48,10.00
2016,04,30,00,49,10.00
2016,04,30,00,50,10.00
2016,04,30,00,51,10.00
2016,04,30,00,52,10.00
2016,04,30,00,53,10.00
2016,04,30,00,54,10.00
2016,04,30,00,55,9.90
2016,04,30,00,56,9.90
2016,04,30,00,57,9.90
2016,04,30,00,58,9.90
2016,04,30,00,59,9.90
2016,04,30,01,00,9.90
2016,04,30,01,01,9.90
2016,04,30,01,02,9.90
2016,04,30,01,03,9.90
2016,04,30,01,04,9.80
2016,04,30,01,05,9.80
2016,04,30,01,06,9.80
2016,04,30,01,07,9.80
2016,04,30,01,08,9.80
2016,04,30,01,09,9.80
2016,04,30,01,10,9.80
2016,04,30,01,11,9.80
2016,04,30,01,12,9.80
2016,04,30,01,13,9.80
2016,04,30,01,14,9.70
2016,04,30,01,15,9.70
2016,04,30,01,16,9.70
2016,04,30,01,17,9.70
2016,04,30,01,18,9.70
2016,04,30,01,19,9.70
2016,04,30,01,20,9.70
2016,04,30,01,21,9.70
2016,04,30,01,22,9.70
2016,04,30,01,23,9.70
2016,04,30,01,24,9.70
2016,04,30,01,25,9.70
2016,04,30,01,26,9.70
2016,04,30,01,27,9.60
2016,04,30,01,28,9.60
2016,04,30,01,29,9.60
2016,04,30,01,30,9.60
2016,04,30,01,31,9.60
2016,04,30,01,32,9.60
2016,04,30,01,33,9.60
2016,04,30,01,34,9.50
2016,04,30,01,35,9.50
2016,04,30,01,36,9.40
2016,04,30,01,37,9.40
2016,04,30,01,38,9.30
2016,04,30,01,39,9.30
2016,04,30,01,40,9.30
2016,04,30,01,41,9.20
2016,04,30,01,42,9.10
2016,04,30,01,43,9.10
2016,04,30,01,44,9.00
2016,04,30,01,45,9.00
2016,04,30,01,46,8.90
2016,04,30,01,47,8.90
2016,04,30,01,48,8.80
2016,04,30,01,49,8.80
2016,04,30,01,50,8.70
2016,04,30,01,51,8.70
2016,04,30,01,52,8.60
2016,04,30,01,53,8.60
2016,04,30,01,54,8.60
2016,04,30,01,55,8.50
2016,04,30,01,56,8.50
2016,04,30,01,57,8.50
2016,04,30,01,58,8.50
2016,04,30,01,59,8.50
2016,04,30,02,00,8.40
2016,04,30,02,01,8.40
2016,04,30,02,02,8.50
2016,04,30,02,03,8.50
2016,04,30,02,04,8.50
2016,04,30,02,05,8.50
2016,04,30,02,06,8.50
2016,04,30,02,07,8.50
2016,04,30,02,08,8.50
2016,04,30,02,09,8.50
2016,04,30,02,10,8.40
2016,04,30,02,11,8.40
2016,04,30,02,12,8.40
2016,04,30,02,13,8.30
2016,04,30,02,14,8.30
2016,04,30,02,15,8.30
2016,04,30,02,16,8.30
2016,04,30,02,17,8.30
2016,04,30,02,18,8.30
2016,04,30,02,19,8.20
2016,04,30,02,20,8.20
2016,04,30,02,21,8.20
2016,04,30,02,22,8.20
2016,04,30,02,23,8.20
2016,04,30,02,24,8.20
2016,04,30,02,25,8.20
2016,04,30,02,26,8.20
2016,04,30,02,27,8.20
2016,04,30,02,28,8.20
2016,04,30,02,29,8.20
2016,04,30,02,30,8.20
2016,04,30,02,31,8.20
2016,04,30,02,32,8.20
2016,04,30,02,33,8.20
2016,04,30,02,34,8.20
2016,04,30,02,35,8.20
2016,04,30,02,36,8.20
2016,04,30,02,37,8.20
2016,04,30,02,38,8.20
2016,04,30,02,39,8.20
2016,04,30,02,40,8.20
2016,04,30,02,41,8.20
2016,04,30,02,42,8.20
2016,04,30,02,43,8.20
2016,04,30,02,44,8.20
2016,04,30,02,45,8.20
2016,04,30,02,46,8.20
2016,04,30,02,47,8.10
2016,04,30,02,48,8.10
2016,04,30,02,49,8.10
2016,04,30,02,50,8.10
2016,04,30,02,51,8.10
2016,04,30,02,52,8.10
2016,04,30,02,53,8.10
2016,04,30,02,54,8.00
2016,04,30,02,55,8.00
2016,04,30,02,56,8.00
2016,04,30,02,57,8.00
2016,04,30,02,58,7.90
2016,04,30,02,59,7.90
2016,04,30,03,00,7.90
2016,04,30,03,01,7.90
2016,04,30,03,02,7.90
2016,04,30,03,03,7.80
2016,04,30,03,04,7.80
2016,04,30,03,05,7.80
2016,04,30,03,06,7.80
2016,04,30,03,07,7.80
2016,04,30,03,08,7.80
2016,04,30,03,09,7.80
2016,04,30,03,10,7.80
2016,04,30,03,11,7.80
2016,04,30,03,12,7.80
2016,04,30,03,13,7.80
2016,04,30,03,14,7.70
2016,04,30,03,15,7.70
2016,04,30,03,16,7.70
2016,04,30,03,17,7.70
2016,04,30,03,18,7.70
2016,04,30,03,19,7.70
2016,04,30,03,20,7.70
2016,04,30,03,21,7.70
2016,04,30,03,22,7.60
2016,04,30,03,23,7.60
2016,04,30,03,24,7.60
2016,04,30,03,25,7.60
2016,04,30,03,26,7.60
2016,04,30,03,27,7.60
2016,04,30,03,28,7.60
2016,04,30,03,29,7.60
2016,04,30,03,30,7.60
2016,04,30,03,31,7.60
2016,04,30,03,32,7.60
2016,04,30,03,33,7.60
2016,04,30,03,34,7.60
2016,04,30,03,35,7.50
2016,04,30,03,36,7.50
2016,04,30,03,37,7.50
2016,04,30,03,38,7.50
2016,04,30,03,39,7.50
2016,04,30,03,40,7.40
2016,04,30,03,41,7.40
2016,04,30,03,42,7.40
2016,04,30,03,43,7.40
2016,04,30,03,44,7.30
2016,04,30,03,45,7.30
2016,04,30,03,46,7.30
2016,04,30,03,47,7.30
2016,04,30,03,48,7.30
2016,04,30,03,49,7.30
2016,04,30,03,50,7.30
2016,04,30,03,51,7.30
2016,04,30,03,52,7.30
2016,04,30,03,53,7.30
2016,04,30,03,54,7.30
2016,04,30,03,55,7.30
2016,04,30,03,56,7.30
2016,04,30,03,57,7.30
2016,04,30,03,58,7.30
2016,04,30,03,59,7.30
2016,04,30,04,00,7.30
2016,04,30,04,01,7.20
2016,04,30,04,02,7.20
2016,04,30,04,03,7.20
2016,04,30,04,04,7.20
2016,04,30,04,05,7.20
2016,04,30,04,06,7.20
2016,04,30,04,07,7.20
2016,04,30,04,08,7.20
2016,04,30,04,09,7.20
2016,04,30,04,10,7.20
2016,04,30,04,11,7.20
2016,04,30,04,12,7.20
2016,04,30,04,13,7.20
2016,04,30,04,14,7.20
2016,04,30,04,15,7.20
2016,04,30,04,16,7.20
2016,04,30,04,17,7.20
2016,04,30,04,18,7.20
2016,04,30,04,19,7.20
2016,04,30,04,20,7.20
2016,04,30,04,21,7.20
2016,04,30,04,22,7.20
2016,04,30,04,23,7.20
2016,04,30,04,24,7.20
2016,04,30,04,25,7.20
2016,04,30,04,26,7.20
2016,04,30,04,27,7.20
2016,04,30,04,28,7.20
2016,04,30,04,29,7.20
2016,04,30,04,30,7.10
2016,04,30,04,31,7.10
2016,04,30,04,32,7.10
2016,04,30,04,33,7.10
2016,04,30,04,34,7.10
2016,04,30,04,35,7.10
2016,04,30,04,36,7.00
2016,04,30,04,37,7.00
2016,04,30,04,38,7.00
2016,04,30,04,39,7.00
2016,04,30,04,40,7.10
2016,04,30,04,41,7.00
2016,04,30,04,42,7.10
2016,04,30,04,43,7.00
2016,04,30,04,44,7.00
2016,04,30,04,45,7.00
2016,04,30,04,46,7.00
2016,04,30,04,47,7.00
2016,04,30,04,48,7.00
2016,04,30,04,49,7.00
2016,04,30,04,50,7.00
2016,04,30,04,51,7.00
2016,04,30,04,52,7.00
2016,04,30,04,53,7.00
2016,04,30,04,54,7.00
2016,04,30,04,55,6.90
2016,04,30,04,56,6.90
2016,04,30,04,57,6.90
2016,04,30,04,58,6.90
2016,04,30,04,59,6.90
2016,04,30,05,00,6.90
2016,04,30,05,01,6.90
2016,04,30,05,02,6.90
2016,04,30,05,03,6.90
2016,04,30,05,04,6.90
2016,04,30,05,05,7.00
2016,04,30,05,06,7.00
2016,04,30,05,07,7.00
2016,04,30,05,08,7.00
2016,04,30,05,09,6.90
2016,04,30,05,10,6.90
2016,04,30,05,11,6.90
2016,04,30,05,12,6.90
2016,04,30,05,13,6.90
2016,04,30,05,14,6.80
2016,04,30,05,15,6.80
2016,04,30,05,16,6.80
2016,04,30,05,17,6.80
2016,04,30,05,18,6.90
2016,04,30,05,19,6.90
2016,04,30,05,20,6.90
2016,04,30,05,21,6.90
2016,04,30,05,22,6.90
2016,04,30,05,23,6.90
2016,04,30,05,24,6.90
2016,04,30,05,25,6.90
2016,04,30,05,26,6.90
2016,04,30,05,27,6.90
2016,04,30,05,28,6.90
2016,04,30,05,29,6.90
2016,04,30,05,30,6.90
2016,04,30,05,31,6.90
2016,04,30,05,32,6.90
2016,04,30,05,33,6.90
2016,04,30,05,34,6.90
2016,04,30,05,35,6.90
2016,04,30,05,36,6.90
2016,04,30,05,37,6.90
2016,04,30,05,38,6.90
2016,04,30,05,39,6.90
2016,04,30,05,40,6.90
2016,04,30,05,41,6.90
2016,04,30,05,42,6.90
2016,04,30,05,43,6.90
2016,04,30,05,44,6.90
2016,04,30,05,45,6.90
2016,04,30,05,46,6.90
2016,04,30,05,47,6.90
2016,04,30,05,48,6.90
2016,04,30,05,49,6.80
2016,04,30,05,50,6.80
2016,04,30,05,51,6.80
2016,04,30,05,52,6.80
2016,04,30,05,53,6.80
2016,04,30,05,54,6.80
2016,04,30,05,55,6.80
2016,04,30,05,56,6.80
2016,04,30,05,57,6.80
2016,04,30,05,58,6.80
2016,04,30,05,59,6.80
2016,04,30,06,00,6.80
2016,04,30,06,01,6.80
2016,04,30,06,02,6.80
2016,04,30,06,03,6.70
2016,04,30,06,04,6.70
2016,04,30,06,05,6.70
2016,04,30,06,06,6.70
2016,04,30,06,07,6.80
2016,04,30,06,08,6.80
2016,04,30,06,09,6.80
2016,04,30,06,10,6.80
2016,04,30,06,11,6.80
2016,04,30,06,12,6.80
2016,04,30,06,13,6.80
2016,04,30,06,14,6.80
2016,04,30,06,15,6.80
2016,04,30,06,16,6.90
2016,04,30,06,17,6.90
2016,04,30,06,18,6.90
2016,04,30,06,19,7.00
2016,04,30,06,20,7.00
2016,04,30,06,21,7.00
2016,04,30,06,22,7.00
2016,04,30,06,23,7.10
2016,04,30,06,24,7.10
2016,04,30,06,25,7.10
2016,04,30,06,26,7.10
2016,04,30,06,27,7.10
2016,04,30,06,28,7.20
2016,04,30,06,29,7.20
2016,04,30,06,30,7.20
2016,04,30,06,31,7.30
2016,04,30,06,32,7.30
2016,04,30,06,33,7.40
2016,04,30,06,34,7.40
2016,04,30,06,35,7.50
2016,04,30,06,36,7.50
2016,04,30,06,37,7.60
2016,04,30,06,38,7.70
2016,04,30,06,39,7.70
2016,04,30,06,40,7.80
2016,04,30,06,41,7.80
2016,04,30,06,42,7.80
2016,04,30,06,43,7.80
2016,04,30,06,44,7.90
2016,04,30,06,45,7.90
2016,04,30,06,46,7.90
2016,04,30,06,47,7.90
2016,04,30,06,48,8.00
2016,04,30,06,49,8.00
2016,04,30,06,50,8.10
2016,04,30,06,51,8.10
2016,04,30,06,52,8.20
2016,04,30,06,53,8.20
2016,04,30,06,54,8.30
2016,04,30,06,55,8.30
2016,04,30,06,56,8.40
2016,04,30,06,57,8.50
2016,04,30,06,58,8.60
2016,04,30,06,59,8.70
2016,04,30,07,00,8.80
2016,04,30,07,01,8.80
2016,04,30,07,02,8.90
2016,04,30,07,03,9.00
2016,04,30,07,04,9.10
2016,04,30,07,05,9.20
2016,04,30,07,06,9.30
2016,04,30,07,07,9.30
2016,04,30,07,08,9.30
2016,04,30,07,09,9.40
2016,04,30,07,10,9.40
2016,04,30,07,11,9.50
2016,04,30,07,12,9.50
2016,04,30,07,13,9.60
2016,04,30,07,14,9.70
2016,04,30,07,15,9.70
2016,04,30,07,16,9.80
2016,04,30,07,17,9.90
2016,04,30,07,18,9.90
2016,04,30,07,19,10.00
2016,04,30,07,20,10.00
2016,04,30,07,21,10.10
2016,04,30,07,22,10.20
2016,04,30,07,23,10.20
2016,04,30,07,24,10.30
2016,04,30,07,25,10.30
2016,04,30,07,26,10.30
2016,04,30,07,27,10.40
2016,04,30,07,28,10.40
2016,04,30,07,29,10.50
2016,04,30,07,30,10.50
2016,04,30,07,31,10.60
2016,04,30,07,32,10.60
2016,04,30,07,33,10.60
2016,04,30,07,34,10.60
2016,04,30,07,35,10.60
2016,04,30,07,36,10.60
2016,04,30,07,37,10.60
2016,04,30,07,38,10.60
2016,04,30,07,39,10.60
2016,04,30,07,40,10.70
2016,04,30,07,41,10.70
2016,04,30,07,42,10.70
2016,04,30,07,43,10.70
2016,04,30,07,44,10.70
2016,04,30,07,45,10.80
2016,04,30,07,46,10.80
2016,04,30,07,47,10.80
2016,04,30,07,48,10.90
2016,04,30,07,49,11.00
2016,04,30,07,50,11.00
2016,04,30,07,51,11.10
2016,04,30,07,52,11.20
2016,04,30,07,53,11.20
2016,04,30,07,54,11.30
2016,04,30,07,55,11.30
2016,04,30,07,56,11.40
2016,04,30,07,57,11.50
2016,04,30,07,58,11.60
2016,04,30,07,59,11.70
2016,04,30,08,00,11.70
2016,04,30,08,01,11.80
2016,04,30,08,02,11.90
2016,04,30,08,03,12.00
2016,04,30,08,04,12.00
2016,04,30,08,05,12.10
2016,04,30,08,06,12.10
2016,04,30,08,07,12.10
2016,04,30,08,08,12.10
2016,04,30,08,09,12.10
2016,04,30,08,10,12.10
2016,04,30,08,11,12.20
2016,04,30,08,12,12.20
2016,04,30,08,13,12.20
2016,04,30,08,14,12.30
2016,04,30,08,15,12.30
2016,04,30,08,16,12.30
2016,04,30,08,17,12.40
2016,04,30,08,18,12.40
2016,04,30,08,19,12.40
2016,04,30,08,20,12.40
2016,04,30,08,21,12.50
2016,04,30,08,22,12.50
2016,04,30,08,23,12.60
2016,04,30,08,24,12.60
2016,04,30,08,25,12.70
2016,04,30,08,26,12.80
2016,04,30,08,27,12.80
2016,04,30,08,28,12.90
2016,04,30,08,29,12.90
2016,04,30,08,30,12.90
2016,04,30,08,31,13.00
2016,04,30,08,32,13.00
2016,04,30,08,33,13.10
2016,04,30,08,34,13.10
2016,04,30,08,35,13.20
2016,04,30,08,36,13.20
2016,04,30,08,37,13.30
2016,04,30,08,38,13.30
2016,04,30,08,39,13.30
2016,04,30,08,40,13.40
2016,04,30,08,41,13.40
2016,04,30,08,42,13.40
2016,04,30,08,43,13.30
2016,04,30,08,44,13.40
2016,04,30,08,45,13.40
2016,04,30,08,46,13.40
2016,04,30,08,47,13.40
2016,04,30,08,48,13.30
2016,04,30,08,49,13.30
2016,04,30,08,50,13.30
2016,04,30,08,51,13.30
2016,04,30,08,52,13.30
2016,04,30,08,53,13.20
2016,04,30,08,54,13.20
2016,04,30,08,55,13.10
2016,04,30,08,56,13.10
2016,04,30,08,57,13.10
2016,04,30,08,58,13.10
2016,04,30,08,59,13.10
2016,04,30,09,00,13.10
2016,04,30,09,01,13.10
2016,04,30,09,02,13.10
2016,04,30,09,03,13.10
2016,04,30,09,04,13.10
2016,04,30,09,05,13.10
2016,04,30,09,06,13.20
2016,04,30,09,07,13.20
2016,04,30,09,08,13.30
2016,04,30,09,09,13.30
2016,04,30,09,10,13.40
2016,04,30,09,11,13.40
2016,04,30,09,12,13.50
2016,04,30,09,13,13.60
2016,04,30,09,14,13.60
2016,04,30,09,15,13.60
2016,04,30,09,16,13.70
2016,04,30,09,17,13.70
2016,04,30,09,18,13.70
2016,04,30,09,19,13.70
2016,04,30,09,20,13.70
2016,04,30,09,21,13.70
2016,04,30,09,22,13.70
2016,04,30,09,23,13.70
2016,04,30,09,24,13.70
2016,04,30,09,25,13.70
2016,04,30,09,26,13.70
2016,04,30,09,27,13.80
2016,04,30,09,28,13.80
2016,04,30,09,29,13.80
2016,04,30,09,30,13.70
2016,04,30,09,31,13.70
2016,04,30,09,32,13.60
2016,04,30,09,33,13.60
2016,04,30,09,34,13.60
2016,04,30,09,35,13.60
2016,04,30,09,36,13.60
2016,04,30,09,37,13.60
2016,04,30,09,38,13.60
2016,04,30,09,39,13.60
2016,04,30,09,40,13.60
2016,04,30,09,41,13.60
2016,04,30,09,42,13.60
2016,04,30,09,43,13.50
2016,04,30,09,44,13.50
2016,04,30,09,45,13.50
2016,04,30,09,46,13.50
2016,04,30,09,47,13.50
2016,04,30,09,48,13.50
2016,04,30,09,49,13.50
2016,04,30,09,50,13.60
2016,04,30,09,51,13.60
2016,04,30,09,52,13.60
2016,04,30,09,53,13.60
2016,04,30,09,54,13.70
2016,04,30,09,55,13.70
2016,04,30,09,56,13.70
2016,04,30,09,57,13.70
2016,04,30,09,58,13.70
2016,04,30,09,59,13.70
2016,04,30,10,00,13.80
2016,04,30,10,01,13.80
2016,04,30,10,02,13.80
2016,04,30,10,03,13.80
2016,04,30,10,04,13.80
2016,04,30,10,05,13.80
2016,04,30,10,06,13.80
2016,04,30,10,07,13.80
2016,04,30,10,08,13.80
2016,04,30,10,09,13.80
2016,04,30,10,10,13.80
2016,04,30,10,11,13.80
2016,04,30,10,12,13.80
2016,04,30,10,13,13.80
2016,04,30,10,14,13.90
2016,04,30,10,15,13.90
2016,04,30,10,16,13.90
2016,04,30,10,17,13.90
2016,04,30,10,18,13.80
2016,04,30,10,19,13.80
2016,04,30,10,20,13.80
2016,04,30,10,21,13.80
2016,04,30,10,22,13.80
2016,04,30,10,23,13.80
2016,04,30,10,24,13.80
2016,04,30,10,25,13.80
2016,04,30,10,26,13.80
2016,04,30,10,27,13.80
2016,04,30,10,28,13.90
2016,04,30,10,29,13.90
2016,04,30,10,30,13.90
2016,04,30,10,31,14.00
2016,04,30,10,32,13.90
2016,04,30,10,33,13.90
2016,04,30,10,34,13.90
2016,04,30,10,35,13.80
2016,04,30,10,36,13.80
2016,04,30,10,37,13.80
2016,04,30,10,38,13.70
2016,04,30,10,39,13.70
2016,04,30,10,40,13.60
2016,04,30,10,41,13.60
2016,04,30,10,42,13.50
2016,04,30,10,43,13.50
2016,04,30,10,44,13.40
2016,04,30,10,45,13.40
2016,04,30,10,46,13.30
2016,04,30,10,47,13.30
2016,04,30,10,48,13.30
2016,04,30,10,49,13.30
2016,04,30,10,50,13.30
2016,04,30,10,51,13.30
2016,04,30,10,52,13.30
2016,04,30,10,53,13.30
2016,04,30,10,54,13.30
2016,04,30,10,55,13.30
2016,04,30,10,56,13.30
2016,04,30,10,57,13.30
2016,04,30,10,58,13.30
2016,04,30,10,59,13.30
2016,04,30,11,00,13.30
2016,04,30,11,01,13.30
2016,04,30,11,02,13.30
2016,04,30,11,03,13.40
2016,04,30,11,04,13.40
2016,04,30,11,05,13.50
2016,04,30,11,06,13.60
2016,04,30,11,07,13.70
2016,04,30,11,08,13.80
2016,04,30,11,09,13.90
2016,04,30,11,10,14.00
2016,04,30,11,11,14.00
2016,04,30,11,12,14.10
2016,04,30,11,13,14.10
2016,04,30,11,14,14.20
2016,04,30,11,15,14.20
2016,04,30,11,16,14.20
2016,04,30,11,17,14.20
2016,04,30,11,18,14.30
2016,04,30,11,19,14.30
2016,04,30,11,20,14.40
2016,04,30,11,21,14.50
2016,04,30,11,22,14.50
2016,04,30,11,23,14.60
2016,04,30,11,24,14.60
2016,04,30,11,25,14.70
2016,04,30,11,26,14.70
2016,04,30,11,27,14.70
2016,04,30,11,28,14.70
2016,04,30,11,29,14.70
2016,04,30,11,30,14.60
2016,04,30,11,31,14.60
2016,04,30,11,32,14.60
2016,04,30,11,33,14.60
2016,04,30,11,34,14.60
2016,04,30,11,35,14.50
2016,04,30,11,36,14.50
2016,04,30,11,37,14.50
2016,04,30,11,38,14.50
2016,04,30,11,39,14.50
2016,04,30,11,40,14.50
2016,04,30,11,41,14.50
2016,04,30,11,42,14.50
2016,04,30,11,43,14.40
2016,04,30,11,44,14.40
2016,04,30,11,45,14.40
2016,04,30,11,46,14.40
2016,04,30,11,47,14.40
2016,04,30,11,48,14.40
2016,04,30,11,49,14.40
2016,04,30,11,50,14.40
2016,04,30,11,51,14.40
2016,04,30,11,52,14.30
2016,04,30,11,53,14.30
2016,04,30,11,54,14.30
2016,04,30,11,55,14.30
2016,04,30,11,56,14.30
2016,04,30,11,57,14.30
2016,04,30,11,58,14.40
2016,04,30,11,59,14.40
2016,04,30,12,00,14.50
2016,04,30,12,01,14.50
2016,04,30,12,02,14.50
2016,04,30,12,03,14.40
2016,04,30,12,04,14.40
2016,04,30,12,05,14.30
2016,04,30,12,06,14.30
2016,04,30,12,07,14.30
2016,04,30,12,08,14.30
2016,04,30,12,09,14.30
2016,04,30,12,10,14.30
2016,04,30,12,11,14.30
2016,04,30,12,12,14.40
2016,04,30,12,13,14.40
2016,04,30,12,14,14.50
2016,04,30,12,15,14.50
2016,04,30,12,16,14.50
2016,04,30,12,17,14.60
2016,04,30,12,18,14.60
2016,04,30,12,19,14.70
2016,04,30,12,20,14.80
2016,04,30,12,21,14.90
2016,04,30,12,22,14.90
2016,04,30,12,23,15.00
2016,04,30,12,24,15.10
2016,04,30,12,25,15.10
2016,04,30,12,26,15.20
2016,04,30,12,27,15.20
2016,04,30,12,28,15.20
2016,04,30,12,29,15.20
2016,04,30,12,30,15.20
2016,04,30,12,31,15.10
2016,04,30,12,32,15.00
2016,04,30,12,33,14.90
2016,04,30,12,34,14.80
2016,04,30,12,35,14.70
2016,04,30,12,36,14.70
2016,04,30,12,37,14.60
2016,04,30,12,38,14.60
2016,04,30,12,39,14.60
2016,04,30,12,40,14.60
2016,04,30,12,41,14.50
2016,04,30,12,42,14.60
2016,04,30,12,43,14.60
2016,04,30,12,44,14.60
2016,04,30,12,45,14.60
2016,04,30,12,46,14.70
2016,04,30,12,47,14.70
2016,04,30,12,48,14.70
2016,04,30,12,49,14.70
2016,04,30,12,50,14.70
2016,04,30,12,51,14.80
2016,04,30,12,52,14.80
2016,04,30,12,53,14.80
2016,04,30,12,54,14.80
2016,04,30,12,55,14.80
2016,04,30,12,56,14.80
2016,04,30,12,57,14.80
2016,04,30,12,58,14.70
2016,04,30,12,59,14.70
2016,04,30,13,00,14.70
2016,04,30,13,01,14.70
2016,04,30,13,02,14.70
2016,04,30,13,03,14.70
2016,04,30,13,04,14.70
2016,04,30,13,05,14.70
2016,04,30,13,06,14.70
2016,04,30,13,07,14.70
2016,04,30,13,08,14.60
2016,04,30,13,09,14.50
2016,04,30,13,10,14.30
2016,04,30,13,11,14.20
2016,04,30,13,12,14.00
2016,04,30,13,13,13.90
2016,04,30,13,14,13.80
2016,04,30,13,15,13.80
2016,04,30,13,16,13.70
2016,04,30,13,17,13.70
2016,04,30,13,18,13.70
2016,04,30,13,19,13.80
2016,04,30,13,20,13.80
2016,04,30,13,21,13.80
2016,04,30,13,22,13.80
2016,04,30,13,23,13.80
2016,04,30,13,24,13.80
2016,04,30,13,25,13.80
2016,04,30,13,26,13.80
2016,04,30,13,27,13.80
2016,04,30,13,28,13.80
2016,04,30,13,29,13.80
2016,04,30,13,30,13.80
2016,04,30,13,31,13.80
2016,04,30,13,32,13.80
2016,04,30,13,33,13.80
2016,04,30,13,34,13.80
2016,04,30,13,35,13.80
2016,04,30,13,36,13.80
2016,04,30,13,37,13.80
2016,04,30,13,38,13.70
2016,04,30,13,39,13.70
2016,04,30,13,40,13.80
2016,04,30,13,41,13.80
2016,04,30,13,42,13.80
2016,04,30,13,43,13.80
2016,04,30,13,44,13.80
2016,04,30,13,45,13.80
2016,04,30,13,46,13.80
2016,04,30,13,47,13.80
2016,04,30,13,48,13.80
2016,04,30,13,49,13.90
2016,04,30,13,50,13.90
2016,04,30,13,51,13.90
2016,04,30,13,52,14.00
2016,04,30,13,53,14.00
2016,04,30,13,54,14.00
2016,04,30,13,55,14.00
2016,04,30,13,56,14.00
2016,04,30,13,57,14.00
2016,04,30,13,58,14.00
2016,04,30,13,59,14.10
2016,04,30,14,00,14.10
2016,04,30,14,01,14.10
2016,04,30,14,02,14.10
2016,04,30,14,03,14.10
2016,04,30,14,04,14.10
2016,04,30,14,05,14.10
2016,04,30,14,06,14.10
2016,04,30,14,07,14.10
2016,04,30,14,08,14.10
2016,04,30,14,09,14.10
2016,04,30,14,10,14.20
2016,04,30,14,11,14.20
2016,04,30,14,12,14.30
2016,04,30,14,13,14.40
2016,04,30,14,14,14.40
2016,04,30,14,15,14.40
2016,04,30,14,16,14.40
2016,04,30,14,17,14.40
2016,04,30,14,18,14.40
2016,04,30,14,19,14.30
2016,04,30,14,20,14.30
2016,04,30,14,21,14.30
2016,04,30,14,22,14.30
2016,04,30,14,23,14.30
2016,04,30,14,24,14.40
2016,04,30,14,25,14.40
2016,04,30,14,26,14.50
2016,04,30,14,27,14.50
2016,04,30,14,28,14.60
2016,04,30,14,29,14.60
2016,04,30,14,30,14.50
2016,04,30,14,31,14.50
2016,04,30,14,32,14.30
2016,04,30,14,33,14.20
2016,04,30,14,34,14.10
2016,04,30,14,35,14.10
2016,04,30,14,36,14.10
2016,04,30,14,37,14.10
2016,04,30,14,38,14.10
2016,04,30,14,39,14.10
2016,04,30,14,40,14.10
2016,04,30,14,41,14.10
2016,04,30,14,42,14.20
2016,04,30,14,43,14.20
2016,04,30,14,44,14.20
2016,04,30,14,45,14.30
2016,04,30,14,46,14.30
2016,04,30,14,47,14.40
2016,04,30,14,48,14.50
2016,04,30,14,49,14.50
2016,04,30,14,50,14.50
2016,04,30,14,51,14.50
2016,04,30,14,52,14.60
2016,04,30,14,53,14.50
2016,04,30,14,54,14.50
2016,04,30,14,55,14.40
2016,04,30,14,56,14.30
2016,04,30,14,57,14.30
2016,04,30,14,58,14.30
2016,04,30,14,59,14.30
2016,04,30,15,00,14.30
2016,04,30,15,01,14.30
2016,04,30,15,02,14.20
2016,04,30,15,03,14.10
2016,04,30,15,04,14.10
2016,04,30,15,05,14.10
2016,04,30,15,06,14.20
2016,04,30,15,07,14.40
2016,04,30,15,08,14.50
2016,04,30,15,09,14.60
2016,04,30,15,10,14.70
2016,04,30,15,11,14.70
2016,04,30,15,12,14.80
2016,04,30,15,13,14.80
2016,04,30,15,14,14.80
2016,04,30,15,15,14.90
2016,04,30,15,16,14.90
2016,04,30,15,17,14.90
2016,04,30,15,18,14.90
2016,04,30,15,19,14.90
2016,04,30,15,20,15.00
2016,04,30,15,21,15.00
2016,04,30,15,22,15.10
2016,04,30,15,23,15.00
2016,04,30,15,24,15.00
2016,04,30,15,25,14.90
2016,04,30,15,26,14.90
2016,04,30,15,27,14.90
2016,04,30,15,28,14.90
2016,04,30,15,29,14.80
2016,04,30,15,30,14.80
2016,04,30,15,31,14.70
2016,04,30,15,32,14.70
2016,04,30,15,33,14.70
2016,04,30,15,34,14.70
2016,04,30,15,35,14.70
2016,04,30,15,36,14.80
2016,04,30,15,37,14.80
2016,04,30,15,38,14.80
2016,04,30,15,39,14.90
2016,04,30,15,40,15.00
2016,04,30,15,41,15.10
2016,04,30,15,42,15.20
2016,04,30,15,43,15.20
2016,04,30,15,44,15.30
2016,04,30,15,45,15.30
2016,04,30,15,46,15.40
2016,04,30,15,47,15.40
2016,04,30,15,48,15.50
2016,04,30,15,49,15.50
2016,04,30,15,50,15.50
2016,04,30,15,51,15.50
2016,04,30,15,52,15.60
2016,04,30,15,53,15.60
2016,04,30,15,54,15.60
2016,04,30,15,55,15.70
2016,04,30,15,56,15.70
2016,04,30,15,57,15.80
2016,04,30,15,58,15.80
2016,04,30,15,59,15.90
2016,04,30,16,00,15.90
2016,04,30,16,01,15.90
2016,04,30,16,02,15.90
2016,04,30,16,03,15.80
2016,04,30,16,04,15.80
2016,04,30,16,05,15.80
2016,04,30,16,06,15.80
2016,04,30,16,07,15.80
2016,04,30,16,08,15.80
2016,04,30,16,09,15.90
2016,04,30,16,10,15.90
2016,04,30,16,11,15.90
2016,04,30,16,12,15.90
2016,04,30,16,13,15.90
2016,04,30,16,14,15.90
2016,04,30,16,15,15.80
2016,04,30,16,16,15.80
2016,04,30,16,17,15.80
2016,04,30,16,18,15.70
2016,04,30,16,19,15.60
2016,04,30,16,20,15.60
2016,04,30,16,21,15.50
2016,04,30,16,22,15.50
2016,04,30,16,23,15.50
2016,04,30,16,24,15.60
2016,04,30,16,25,15.60
2016,04,30,16,26,15.60
2016,04,30,16,27,15.70
2016,04,30,16,28,15.70
2016,04,30,16,29,15.80
2016,04,30,16,30,15.90
2016,04,30,16,31,16.00
2016,04,30,16,32,16.10
2016,04,30,16,33,16.10
2016,04,30,16,34,16.10
2016,04,30,16,35,16.20
2016,04,30,16,36,16.20
2016,04,30,16,37,16.20
2016,04,30,16,38,16.20
2016,04,30,16,39,16.20
2016,04,30,16,40,16.20
2016,04,30,16,41,16.30
2016,04,30,16,42,16.30
2016,04,30,16,43,16.30
2016,04,30,16,44,16.30
2016,04,30,16,45,16.40
2016,04,30,16,46,16.40
2016,04,30,16,47,16.50
2016,04,30,16,48,16.60
2016,04,30,16,49,16.70
2016,04,30,16,50,16.70
2016,04,30,16,51,16.80
2016,04,30,16,52,16.80
2016,04,30,16,53,16.80
2016,04,30,16,54,16.90
2016,04,30,16,55,16.90
2016,04,30,16,56,16.90
2016,04,30,16,57,17.00
2016,04,30,16,58,17.00
2016,04,30,16,59,17.00
2016,04,30,17,00,17.00
2016,04,30,17,01,17.10
2016,04,30,17,02,17.10
2016,04,30,17,03,17.10
2016,04,30,17,04,17.10
2016,04,30,17,05,17.10
2016,04,30,17,06,17.20
2016,04,30,17,07,17.20
2016,04,30,17,08,17.20
2016,04,30,17,09,17.20
2016,04,30,17,10,17.20
2016,04,30,17,11,17.20
2016,04,30,17,12,17.20
2016,04,30,17,13,17.10
2016,04,30,17,14,17.10
2016,04,30,17,15,17.10
2016,04,30,17,16,17.10
2016,04,30,17,17,17.10
2016,04,30,17,18,17.10
2016,04,30,17,19,17.10
2016,04,30,17,20,17.10
2016,04,30,17,21,17.10
2016,04,30,17,22,17.10
2016,04,30,17,23,17.10
2016,04,30,17,24,17.10
2016,04,30,17,25,17.00
2016,04,30,17,26,17.00
2016,04,30,17,27,17.00
2016,04,30,17,28,17.00
2016,04,30,17,29,17.00
2016,04,30,17,30,17.10
2016,04,30,17,31,17.10
2016,04,30,17,32,17.20
2016,04,30,17,33,17.20
2016,04,30,17,34,17.30
2016,04,30,17,35,17.40
2016,04,30,17,36,17.40